Weather in Ramallo

Argentina     33°29′52″S   60°04′02″W
temp.,
°C
wind,
m/s
gust,
m/s
humid.,
%
clouds,
%
prec.,
mm/h
press.,
hPa
HPBL,
m
24 september, fri
fri2400:00+11se36950 0.0 1023113
03:00+9ese23930 0.0 102343
06:00+9ese22940 0.0 102314
09:00+15ese23735 0.0 1025311
12:00+21ese22455 0.0 10231323
15:00+24se22370 0.0 10211800
18:00+21se35500 0.0 1019234
21:00+14e37780 0.0 1022121
25 september, sat
sat2500:00+11ene37940 0.0 1022148
03:00+10ene25940 0.0 102189
06:00+9ne25940 0.0 102098
09:00+15ne47670 0.0 1020391
12:00+22ne45420 0.0 10181271
15:00+24ne55360 0.0 10151571
18:00+22ne47480 0.0 1013609
21:00+15ene39750 0.0 1015173
26 september, sun
sun2600:00+13ene37850 0.0 1015127
03:00+11ne38910 0.0 1014142
06:00+11ne249438 0.0 101574
09:00+17ne24640 0.0 1017296
12:00+26e11390 0.0 10161002
15:00+28se23345 0.0 10141821
18:00+25ese364947 0.0 1014271
21:00+18e367557 0.0 1016115
27 september, mon
mon2700:00+15e39855 0.0 1016171
03:00+14e39913 0.0 1016191
06:00+12ese38955 0.0 1017191
09:00+18ene48705 0.0 1018441
12:00+25ene34435 0.0 10161165
15:00+28e33345 0.0 10131658
18:00+25ene474787 0.0 1013515
21:00+20ese5106797 0.0 1015503
28 september, tue
tue2800:00+15se410917 0.0 1017365
03:00+13se4119634 0.1 1017334
06:00+15se499178 0.0 1017394
09:00+18ese4675100 0.0 1019528
12:00+20se566396 0.0 1019810
15:00+20se4666100 0.0 1017732
18:00+21se57634 0.0 1016724
21:00+15ese5118134 0.0 1018427